Location: Newark
(18.0634°N, 63.0549°W)
Time: 16:21:22
(UTC+00:00)

Hubble Space Telescope - Visible Passes

Search period start: 22 October 2019 00:00
Search period end: 01 November 2019 00:00
Orbit: 536 x 540 km, 28.5° (Epoch: 21 October)

Date Brightness Start Highest point End Pass type
(mag) Time Alt. Az. Time Alt. Az. Time Alt. Az.
22 Oct 3.8 09:03:07 10° SSE 09:03:40 10° SSE 09:04:14 10° SE visible
23 Oct 3.4 08:50:47 10° S 08:53:04 14° SSE 08:55:20 10° ESE visible
24 Oct 3.1 08:39:51 12° SSW 08:42:27 20° SSE 08:45:28 10° ESE visible
25 Oct 2.5 08:30:37 23° S 08:31:51 26° SSE 08:35:20 10° E visible
26 Oct 2.0 08:21:18 36° SSE 08:21:18 36° SSE 08:25:02 10° E visible
27 Oct 2.2 08:11:53 36° ESE 08:11:53 36° ESE 08:14:38 10° ENE visible
28 Oct 2.9 08:02:22 24° ENE 08:02:22 24° ENE 08:04:09 10° ENE visible
28 Oct 1.7 09:37:44 11° W 09:41:22 32° NNW 09:45:06 10° NE visible
29 Oct 3.5 07:52:46 16° ENE 07:52:46 16° ENE 07:53:37 10° ENE visible
29 Oct 2.0 09:28:07 14° WNW 09:30:53 28° NNW 09:34:27 10° NE visible
30 Oct 2.2 09:18:25 17° NW 09:20:25 24° NNW 09:23:49 10° NE visible
31 Oct 2.3 09:08:39 19° NW 09:09:58 22° N 09:13:13 10° NE visible
